sat.trackr.live / text

‹ back to catalog

STARLINK-37378

NORAD 69255 · 2026-117T

PAYLOAD ACTIVE UNKNOWN

§ Identity

Operator
Country
US
Launch date
2026-05-29
Launch site
AFETR
Launch vehicle
Mass (kg)
RCS (m²)

Purposes: comms

External: N2YO · Heavens-Above · Gunter

§ Orbital elements

Epoch: 2026-09-19T23:52:53.355072Z

Period
93.85 min
Inclination
53.1574°
Eccentricity
0.0002419
Mean motion
15.34421069 rev/d
Perigee alt
461.0 km
Apogee alt
464.3 km
Semi-major
6,840.8 km
B*
6.5110e-4
RAAN
155.7926°
Arg perigee
97.7202°
Mean anomaly
262.4075°
Rev number
1,759

§ Raw data

STARLINK-373781 69255U 26117T   26262.99506198  .00021701  00000+0  65110-3 0  99952 69255  53.1574 155.7926 0002419  97.7202 262.4075 15.34421069 17595

JSON: /api/v1/satellites/69255 · /tle

For live sub-satellite position, see the globe view (requires WebGL).

§ Visibility from observer

Set your observer location to see the next 7 days of passes ≥ 10°. The values pass through the URL so the page stays shareable.

No JS? Fill the form by hand. The geolocation button needs JavaScript.